TimeCST,TemperatureF,Dew PointF,Humidity,Sea Level PressureIn,VisibilityMPH,Wind Direction,Wind SpeedMPH,Gust SpeedMPH,PrecipitationIn,Events,Conditions,WindDirDegrees,DateUTC
12:54 AM,17.1,10.0,74,30.43,10.0,Calm,Calm,-,N/A,,Clear,0,2012-11-27 06:54:00
1:54 AM,16.0,10.0,77,30.43,10.0,West,3.5,-,N/A,,Clear,270,2012-11-27 07:54:00
2:54 AM,15.1,9.0,77,30.43,10.0,Calm,Calm,-,N/A,,Clear,0,2012-11-27 08:54:00
3:54 AM,14.0,9.0,80,30.43,10.0,Calm,Calm,-,N/A,,Clear,0,2012-11-27 09:54:00
4:54 AM,14.0,8.1,77,30.43,10.0,Calm,Calm,-,N/A,,Clear,0,2012-11-27 10:54:00
5:54 AM,12.0,8.1,84,30.42,10.0,Calm,Calm,-,N/A,,Partly Cloudy,0,2012-11-27 11:54:00
6:54 AM,12.9,9.0,84,30.43,10.0,Calm,Calm,-,N/A,,Mostly Cloudy,0,2012-11-27 12:54:00
7:54 AM,14.0,10.9,88,30.45,10.0,SW,3.5,-,N/A,,Scattered Clouds,220,2012-11-27 13:54:00
8:54 AM,19.9,14.0,78,30.46,10.0,Calm,Calm,-,N/A,,Partly Cloudy,0,2012-11-27 14:54:00
9:54 AM,24.1,10.9,57,30.47,10.0,SW,8.1,-,N/A,,Partly Cloudy,220,2012-11-27 15:54:00
10:54 AM,28.0,10.9,49,30.44,10.0,WSW,8.1,-,N/A,,Scattered Clouds,250,2012-11-27 16:54:00
11:54 AM,28.9,10.9,47,30.40,10.0,WSW,5.8,-,N/A,,Mostly Cloudy,250,2012-11-27 17:54:00
12:54 PM,30.9,12.0,46,30.38,10.0,WSW,5.8,-,N/A,,Overcast,240,2012-11-27 18:54:00
1:54 PM,32.0,12.2,44,30.30,10.0,WSW,6.9,-,N/A,,Overcast,240,2012-11-27 19:54:00
2:54 PM,33.1,12.0,42,30.31,10.0,SSW,9.2,-,N/A,,Mostly Cloudy,200,2012-11-27 20:54:00
3:54 PM,30.0,10.9,45,30.31,10.0,SSW,11.5,-,N/A,,Mostly Cloudy,210,2012-11-27 21:54:00
4:54 PM,28.9,12.0,49,30.31,10.0,SW,4.6,-,N/A,,Mostly Cloudy,220,2012-11-27 22:54:00
5:54 PM,26.1,12.9,58,30.31,10.0,SSW,5.8,-,N/A,,Mostly Cloudy,200,2012-11-27 23:54:00
6:54 PM,27.0,14.0,58,30.30,10.0,South,4.6,-,N/A,,Mostly Cloudy,190,2012-11-28 00:54:00
7:54 PM,27.0,14.0,58,30.30,10.0,SSW,4.6,-,N/A,,Mostly Cloudy,200,2012-11-28 01:54:00
8:54 PM,28.0,15.1,58,30.30,10.0,SSW,5.8,-,N/A,,Mostly Cloudy,200,2012-11-28 02:54:00
9:54 PM,30.9,15.1,52,30.28,10.0,SW,9.2,-,N/A,,Mostly Cloudy,230,2012-11-28 03:54:00
10:54 PM,30.9,15.1,52,30.28,10.0,WSW,10.4,-,N/A,,Overcast,240,2012-11-28 04:54:00
11:54 PM,30.9,16.0,54,30.28,10.0,WSW,11.5,-,N/A,,Mostly Cloudy,240,2012-11-28 05:54:00